Weather History for PASA - October, 2011

Change the Weather History Date:

Thursday, October 20, 2011

  Actual Average Record
Temperature  
Mean Temperature 35 °F -  
Max Temperature 37 °F 31 °F 39 °F (2012)
Min Temperature 33 °F 27 °F 26 °F (1996)
Degree Days  
Heating Degree Days 30    
Moisture  
Dew Point 30 °F    
Average Humidity 80    
Maximum Humidity 93    
Minimum Humidity 70    
Precipitation  
Precipitation 0.00 in - - ()
Sea Level Pressure  
Sea Level Pressure 29.59 in    
Wind  
Wind Speed 15 mph (East)    
Max Wind Speed 20 mph    
Max Gust Speed 23 mph    
Visibility 10 miles    
Events      
Averages and records for this station are not official NWS values.
T = Trace of Precipitation, MM = Missing Value Source: NWS Daily Summary

Daily Weather History Graph

Daily Weather History Graph

Search for Another Location

Airport or City:

Trip Planner

Search our weather history database for the weather conditions in past years. The results will help you decide how hot, cold, wet, or windy it might be!

Date:

Astronomy

Oct. 20, 2011 Rise Set
Actual Time 10:25 AM AKDT 7:46 PM AKDT
Civil Twilight 9:36 AM AKDT 8:35 PM AKDT
Nautical Twilight 8:42 AM AKDT 9:29 PM AKDT
Astronomical Twilight 7:47 AM AKDT 10:24 PM AKDT
Moon 1:01 AM AKDT (10/20) 6:06 PM AKDT (10/20)
Length of Visible Light 10h 58m
Length of Day
9h 20m
Last Quarter, 43% of the Moon is Illuminated
Oct 20
Last Quarter
Oct 26
New
Nov 2
First Quarter
Nov 10
Full
Nov 18
Last Quarter

Hourly Weather History & Observations

Time (AKDT) Temp. Windchill Dew Point Humidity Pressure Visibility Wind Dir Wind Speed Gust Speed Precip Events Conditions
12:16 AM 35.6 °F 27.1 °F 32.0 °F 87% 29.50 in 10.0 mi ESE 12.7 mph - N/A   Overcast
12:36 AM 35.6 °F 26.6 °F 32.0 °F 87% 29.50 in 10.0 mi ESE 13.8 mph - N/A   Overcast
12:56 AM 35.6 °F 26.6 °F 32.0 °F 87% 29.50 in 10.0 mi East 13.8 mph - N/A   Overcast
1:16 AM 35.6 °F 25.9 °F 32.0 °F 87% 29.50 in 10.0 mi ESE 16.1 mph - N/A   Overcast
1:36 AM 35.6 °F 25.5 °F 32.0 °F 87% 29.51 in 10.0 mi East 17.3 mph 21.9 mph N/A   Overcast
1:56 AM 35.6 °F 25.9 °F 33.8 °F 93% 29.51 in 10.0 mi East 16.1 mph - N/A   Overcast
2:16 AM 35.6 °F 25.9 °F 30.2 °F 81% 29.51 in 10.0 mi East 16.1 mph - N/A   Overcast
2:36 AM 35.6 °F 25.9 °F 32.0 °F 87% 29.51 in 10.0 mi ESE 16.1 mph - N/A   Overcast
2:56 AM 35.6 °F 26.2 °F 32.0 °F 87% 29.52 in 10.0 mi East 15.0 mph - N/A   Overcast
3:16 AM 35.6 °F 25.9 °F 30.2 °F 81% 29.52 in 10.0 mi ESE 16.1 mph - N/A   Overcast
3:36 AM 35.6 °F 25.2 °F 32.0 °F 87% 29.52 in 10.0 mi East 18.4 mph - N/A   Overcast
3:56 AM 35.6 °F 25.9 °F 32.0 °F 87% 29.53 in 10.0 mi East 16.1 mph 21.9 mph N/A   Overcast
4:16 AM 35.6 °F 25.2 °F 32.0 °F 87% 29.53 in 10.0 mi East 18.4 mph 23.0 mph N/A   Overcast
4:36 AM 35.6 °F 25.2 °F 30.2 °F 81% 29.53 in 10.0 mi East 18.4 mph - N/A   Overcast
4:56 AM 35.6 °F 25.5 °F 30.2 °F 81% 29.54 in 10.0 mi East 17.3 mph 23.0 mph N/A   Overcast
5:16 AM 33.8 °F 23.2 °F 30.2 °F 87% 29.54 in 10.0 mi East 17.3 mph - N/A   Overcast
5:36 AM 33.8 °F 23.5 °F 30.2 °F 87% 29.54 in 10.0 mi East 16.1 mph - N/A   Mostly Cloudy
5:56 AM 35.6 °F 26.6 °F 32.0 °F 87% 29.54 in 10.0 mi East 13.8 mph - N/A   Overcast
6:16 AM 35.6 °F 26.6 °F 30.2 °F 81% 29.55 in 10.0 mi East 13.8 mph - N/A   Overcast
6:36 AM 35.6 °F 26.2 °F 30.2 °F 81% 29.55 in 10.0 mi East 15.0 mph - N/A   Overcast
6:56 AM 35.6 °F 26.2 °F 30.2 °F 81% 29.55 in 10.0 mi East 15.0 mph - N/A   Overcast
7:16 AM 35.6 °F 26.2 °F 30.2 °F 81% 29.56 in 10.0 mi East 15.0 mph - N/A   Overcast
7:36 AM 35.6 °F 26.6 °F 30.2 °F 81% 29.56 in 10.0 mi East 13.8 mph - N/A   Overcast
7:56 AM 35.6 °F 26.2 °F 30.2 °F 81% 29.57 in 10.0 mi East 15.0 mph - N/A   Overcast
8:16 AM 33.8 °F 23.9 °F 30.2 °F 87% 29.57 in 10.0 mi East 15.0 mph - N/A   Overcast
8:36 AM 33.8 °F 24.8 °F 30.2 °F 87% 29.58 in 10.0 mi East 12.7 mph - N/A   Overcast
8:56 AM 33.8 °F 24.8 °F 28.4 °F 81% 29.58 in 10.0 mi East 12.7 mph - N/A   Overcast
9:16 AM 33.8 °F 24.3 °F 28.4 °F 81% 29.58 in 10.0 mi East 13.8 mph - N/A   Scattered Clouds
9:36 AM 33.8 °F 24.3 °F 28.4 °F 81% 29.59 in 10.0 mi East 13.8 mph - N/A   Scattered Clouds
9:56 AM 33.8 °F 24.8 °F 28.4 °F 81% 29.59 in 10.0 mi East 12.7 mph - N/A   Mostly Cloudy
10:16 AM 33.8 °F 25.3 °F 28.4 °F 81% 29.60 in 10.0 mi East 11.5 mph - N/A   Mostly Cloudy
10:36 AM 33.8 °F 24.8 °F 28.4 °F 81% 29.60 in 10.0 mi East 12.7 mph - N/A   Mostly Cloudy
10:56 AM 33.8 °F 24.8 °F 28.4 °F 81% 29.61 in 10.0 mi East 12.7 mph 19.6 mph N/A   Mostly Cloudy
11:16 AM 35.6 °F 27.1 °F 28.4 °F 75% 29.61 in 10.0 mi East 12.7 mph - N/A   Mostly Cloudy
11:36 AM 35.6 °F 27.1 °F 28.4 °F 75% 29.62 in 10.0 mi East 12.7 mph - N/A   Mostly Cloudy
11:56 AM 35.6 °F 27.1 °F 28.4 °F 75% 29.62 in 10.0 mi East 12.7 mph - N/A   Mostly Cloudy
12:16 PM 35.6 °F 25.5 °F 28.4 °F 75% 29.62 in 10.0 mi East 17.3 mph - N/A   Mostly Cloudy
12:36 PM 35.6 °F 26.2 °F 28.4 °F 75% 29.62 in 10.0 mi East 15.0 mph - N/A   Scattered Clouds
12:56 PM 35.6 °F 25.9 °F 30.2 °F 81% 29.62 in 10.0 mi East 16.1 mph - N/A   Mostly Cloudy
1:16 PM 35.6 °F 25.2 °F 28.4 °F 75% 29.63 in 10.0 mi East 18.4 mph - N/A   Mostly Cloudy
1:36 PM 35.6 °F 25.5 °F 28.4 °F 75% 29.63 in 10.0 mi East 17.3 mph - N/A   Mostly Cloudy
1:56 PM 35.6 °F 25.2 °F 28.4 °F 75% 29.63 in 10.0 mi East 18.4 mph - N/A   Mostly Cloudy
2:16 PM 35.6 °F 25.2 °F 28.4 °F 75% 29.64 in 10.0 mi East 18.4 mph - N/A   Mostly Cloudy
2:36 PM 35.6 °F 26.2 °F 28.4 °F 75% 29.65 in 10.0 mi East 15.0 mph 19.6 mph N/A   Overcast
2:56 PM 37.4 °F 28.9 °F 30.2 °F 75% 29.65 in 10.0 mi East 13.8 mph 21.9 mph N/A   Overcast
3:16 PM 35.6 °F 26.6 °F 28.4 °F 75% 29.65 in 10.0 mi East 13.8 mph - N/A   Overcast
3:36 PM 35.6 °F 25.9 °F 30.2 °F 81% 29.65 in 10.0 mi East 16.1 mph - N/A   Overcast
3:56 PM 37.4 °F 27.8 °F 28.4 °F 70% 29.65 in 10.0 mi East 17.3 mph - N/A   Overcast
4:16 PM 35.6 °F 26.6 °F 28.4 °F 75% 29.65 in 10.0 mi East 13.8 mph - N/A   Mostly Cloudy
4:36 PM 37.4 °F 28.2 °F 28.4 °F 70% 29.65 in 10.0 mi East 16.1 mph - N/A   Mostly Cloudy
4:56 PM 37.4 °F 27.5 °F 28.4 °F 70% 29.65 in 10.0 mi East 18.4 mph - N/A   Overcast
5:16 PM 35.6 °F 25.2 °F 30.2 °F 81% 29.65 in 10.0 mi East 18.4 mph 23.0 mph N/A   Overcast
5:36 PM 37.4 °F 28.2 °F 30.2 °F 75% 29.65 in 10.0 mi East 16.1 mph 21.9 mph N/A   Overcast
5:56 PM 35.6 °F 25.2 °F 28.4 °F 75% 29.66 in 10.0 mi East 18.4 mph - N/A   Mostly Cloudy
6:16 PM 35.6 °F 24.8 °F 30.2 °F 81% 29.66 in 10.0 mi East 19.6 mph - N/A   Overcast
6:36 PM 35.6 °F 25.9 °F 28.4 °F 75% 29.66 in 10.0 mi East 16.1 mph - N/A   Overcast
6:56 PM 35.6 °F 24.8 °F 28.4 °F 75% 29.66 in 10.0 mi East 19.6 mph 23.0 mph N/A   Mostly Cloudy
7:16 PM 35.6 °F 25.2 °F 28.4 °F 75% 29.66 in 10.0 mi East 18.4 mph - N/A   Overcast
7:36 PM 35.6 °F 25.5 °F 28.4 °F 75% 29.67 in 10.0 mi East 17.3 mph - N/A   Overcast
7:56 PM 35.6 °F 26.6 °F 28.4 °F 75% 29.68 in 10.0 mi East 13.8 mph - N/A   Overcast
8:16 PM 35.6 °F 26.6 °F 30.2 °F 81% 29.68 in 10.0 mi East 13.8 mph - N/A   Overcast
8:36 PM 35.6 °F 26.2 °F 28.4 °F 75% 29.68 in 10.0 mi East 15.0 mph - N/A   Overcast
8:56 PM 35.6 °F 25.5 °F 28.4 °F 75% 29.68 in 10.0 mi ENE 17.3 mph 21.9 mph N/A   Overcast
9:16 PM 35.6 °F 26.6 °F 28.4 °F 75% 29.68 in 10.0 mi East 13.8 mph 19.6 mph N/A   Overcast
9:36 PM 35.6 °F 25.9 °F 28.4 °F 75% 29.68 in 10.0 mi East 16.1 mph - N/A   Overcast
9:56 PM 35.6 °F 25.9 °F 28.4 °F 75% 29.68 in 10.0 mi ENE 16.1 mph - N/A   Overcast
10:16 PM 35.6 °F 26.6 °F 28.4 °F 75% 29.68 in 10.0 mi ENE 13.8 mph - N/A   Overcast
10:36 PM 35.6 °F 27.1 °F 28.4 °F 75% 29.68 in 10.0 mi ENE 12.7 mph - N/A   Overcast
10:56 PM 35.6 °F 26.2 °F 28.4 °F 75% 29.68 in 10.0 mi ENE 15.0 mph - N/A   Overcast
11:16 PM 35.6 °F 25.9 °F 30.2 °F 81% 29.68 in 10.0 mi NE 16.1 mph 21.9 mph N/A   Overcast
11:36 PM 35.6 °F 26.2 °F 30.2 °F 81% 29.68 in 10.0 mi NE 15.0 mph - N/A   Overcast
11:56 PM 35.6 °F 25.5 °F 28.4 °F 75% 29.68 in 10.0 mi ENE 17.3 mph - N/A   Overcast